{"data":{"norad_id":45375,"intl_designator":"2020-019R","name":"STARLINK-1302","alt_names":[],"object_type":"PAYLOAD","status":"ACTIVE","operator":null,"country":"US","launch_date":"2020-03-18","launch_site_code":"AFETR","launch_vehicle":null,"mission":null,"orbit_class":"UNKNOWN","rcs_meters":null,"size_class":null,"mass_kg":null,"dimensions":null,"purposes":["comms"],"wikipedia_slug":null,"has_3d_model":false,"image_url":null,"decayed_at":null,"tle_current":{"epoch":"2026-05-24T23:42:19.833120Z","epoch_age_seconds":69269,"freshness":"FRESH","line1":"1 45375U 20019R   26144.98772955  .00041864  00000+0  41075-3 0  9997","line2":"2 45375  53.0454 139.8781 0005515  26.3365 333.7929 15.65652031341856","mean_motion":15.65652031,"eccentricity":0.0005515,"inclination_deg":53.0454,"raan_deg":139.8781,"arg_perigee_deg":26.3365,"mean_anomaly_deg":333.7929,"bstar":0.00041075,"rev_number":34185,"period_min":91.974459936686,"perigee_km":367.64182871477,"apogee_km":375.08652851478,"semimajor_km":6749.5011786148,"source":"CELESTRAK","updated_at":"2026-05-25T13:38:16.388114Z"}}}